Montoursville, PA

3:52 PM EDT on September 26, 2016 (GMT -0400)
Williamsport Rgnl

Weather History for KIPT - February, 2013

Change the Weather History Date:

Thursday, February 28, 2013

  Actual Average Record
Temperature  
Mean Temperature 38 °F 33 °F  
Max Temperature 43 °F 42 °F 68 °F (2016)
Min Temperature 33 °F 24 °F -18 °F (1934)
Degree Days  
Heating Degree Days 27 32  
Month to date heating degree days 998 988  
Since 1 July heating degree days 4166 4467  
Cooling Degree Days 0 0  
Month to date cooling degree days 0 0  
Year to date cooling degree days 0 0  
Moisture  
Dew Point 32 °F    
Average Humidity 79    
Maximum Humidity 100    
Minimum Humidity 57    
Precipitation  
Precipitation 0.01 in 0.09 in 1.59 in (1902)
Month to date precipitation 1.82 2.34  
Year to date precipitation 4.46 5.04  
Snow  
Snow T in 0.30 in 4.50 in (2005)
Month to date snowfall 4.1 8.8  
Since 1 July snowfall 27.1 28.0  
Snow Depth 0.00 in    
Sea Level Pressure  
Sea Level Pressure 29.62 in    
Wind  
Wind Speed 6 mph (West)    
Max Wind Speed 17 mph    
Max Gust Speed 22 mph    
Visibility 6 miles    
Events Rain    
T = Trace of Precipitation, MM = Missing Value Source: NWS Daily Summary

Daily Weather History Graph

Daily Weather History Graph

Search for Another Location

Airport or City:

Trip Planner

Search our weather history database for the weather conditions in past years. The results will help you decide how hot, cold, wet, or windy it might be!

Date:

Astronomy

Feb. 28, 2013 Rise Set
Actual Time 6:43 AM EST 5:57 PM EST
Civil Twilight 6:15 AM EST 6:25 PM EST
Nautical Twilight 5:43 AM EST 6:57 PM EST
Astronomical Twilight 5:11 AM EST 7:29 PM EST
Moon 9:25 PM EST (2/28) 7:49 AM EST (2/28)
Length of Visible Light 12h 09m
Length of Day
11h 14m
Waning Gibbous, 91% of the Moon is Illuminated
Feb 28
Waning Gibbous
Mar 4
Last Quarter
Mar 11
New
Mar 19
First Quarter
Mar 27
Full

Hourly Weather History & Observations

Time (EST) Temp. Windchill Dew Point Humidity Pressure Visibility Wind Dir Wind Speed Gust Speed Precip Events Conditions
12:47 AM 35.6 °F - 35.6 °F 100% 29.60 in 2.5 mi Calm Calm - 0.00 in Rain Light Rain
12:54 AM 35.1 °F 32.2 °F 34.0 °F 96% 29.61 in 1.5 mi ESE 3.5 mph - 0.00 in   Overcast
1:40 AM 35.6 °F - 35.6 °F 100% 29.60 in 2.5 mi Calm Calm - 0.00 in Rain Light Rain
1:52 AM 33.8 °F - 33.8 °F 100% 29.60 in 0.8 mi Calm Calm - 0.00 in Rain Light Rain
1:53 AM 33.8 °F - 33.8 °F 100% 29.60 in 0.8 mi Calm Calm - N/A Rain Light Rain
2:23 AM 35.6 °F - 35.6 °F 100% 29.60 in 1.8 mi Calm Calm - 0.00 in Rain Light Rain
2:34 AM 35.6 °F - 35.6 °F 100% 29.60 in 2.5 mi Calm Calm - 0.00 in Rain Light Rain
2:38 AM 35.6 °F - 35.6 °F 100% 29.60 in 3.0 mi Calm Calm - 0.00 in Rain Light Rain
2:44 AM 35.6 °F - 33.8 °F 93% 29.60 in 1.8 mi Calm Calm - 0.00 in Rain Light Rain
2:54 AM 35.1 °F - 34.0 °F 96% 29.61 in 1.8 mi Calm Calm - 0.00 in Rain Light Rain
2:58 AM 35.6 °F - 33.8 °F 93% 29.59 in 2.5 mi Calm Calm - 0.00 in Rain Light Rain
3:07 AM 35.6 °F 31.7 °F 33.8 °F 93% 29.60 in 4.0 mi NW 4.6 mph - 0.00 in   Overcast
3:22 AM 33.8 °F 30.8 °F 33.8 °F 100% 29.60 in 1.8 mi South 3.5 mph - 0.00 in   Overcast
3:50 AM 33.8 °F - 33.8 °F 100% 29.59 in 0.8 mi Calm Calm - 0.00 in   Overcast
3:54 AM 33.1 °F - 33.1 °F 100% 29.60 in 1.0 mi Calm Calm - 0.00 in   Overcast
4:10 AM 33.8 °F - 33.8 °F 100% 29.59 in 3.0 mi Calm Calm - N/A   Overcast
4:54 AM 35.1 °F 32.2 °F 32.0 °F 89% 29.61 in 10.0 mi West 3.5 mph - N/A   Overcast
5:54 AM 34.0 °F 31.0 °F 30.9 °F 89% 29.61 in 10.0 mi NW 3.5 mph - N/A   Overcast
6:54 AM 34.0 °F 31.0 °F 30.0 °F 85% 29.61 in 10.0 mi NW 3.5 mph - N/A   Scattered Clouds
7:54 AM 34.0 °F - 30.9 °F 89% 29.62 in 9.0 mi Calm Calm - N/A   Mostly Cloudy
8:54 AM 36.0 °F 32.1 °F 30.0 °F 79% 29.62 in 8.0 mi Variable 4.6 mph - N/A   Mostly Cloudy
9:54 AM 37.9 °F 30.9 °F 28.9 °F 70% 29.63 in 10.0 mi West 10.4 mph 18.4 mph N/A   Mostly Cloudy
10:54 AM 39.0 °F 32.3 °F 28.9 °F 67% 29.62 in 10.0 mi West 10.4 mph - N/A   Overcast
11:54 AM 39.0 °F 31.8 °F 28.0 °F 65% 29.62 in 10.0 mi West 11.5 mph - N/A   Overcast
12:54 PM 42.1 °F 36.6 °F 28.9 °F 60% 29.60 in 10.0 mi West 9.2 mph - N/A   Overcast
1:54 PM 39.9 °F 34.5 °F 30.9 °F 70% 29.60 in 10.0 mi West 8.1 mph - 0.00 in Rain Light Rain
2:54 PM 39.9 °F 33.9 °F 28.0 °F 63% 29.59 in 10.0 mi West 9.2 mph - 0.00 in   Overcast
3:54 PM 37.0 °F 31.6 °F 30.9 °F 79% 29.61 in 9.0 mi West 6.9 mph - 0.00 in Rain Light Rain
4:54 PM 37.9 °F 35.5 °F 32.0 °F 79% 29.61 in 10.0 mi West 3.5 mph - 0.01 in   Overcast
5:54 PM 37.0 °F 29.8 °F 30.0 °F 76% 29.63 in 10.0 mi West 10.4 mph - 0.00 in   Overcast
6:54 PM 37.4 °F 32.1 °F 30.2 °F 75% 29.63 in 10.0 mi West 6.9 mph - N/A   Overcast
7:54 PM 35.6 °F 28.6 °F 30.2 °F 81% 29.65 in 10.0 mi West 9.2 mph - N/A   Overcast
8:54 PM 36.0 °F 29.6 °F 30.0 °F 79% 29.67 in 10.0 mi West 8.1 mph - N/A   Overcast
9:54 PM 35.1 °F 30.1 °F 30.9 °F 85% 29.68 in 10.0 mi West 5.8 mph - 0.00 in   Overcast
10:54 PM 36.0 °F 30.3 °F 30.9 °F 82% 29.69 in 10.0 mi West 6.9 mph - N/A   Overcast
11:54 PM 35.1 °F 30.1 °F 30.9 °F 85% 29.69 in 10.0 mi West 5.8 mph - N/A   Overcast